Zurück zum Katalog

SKYCRAFT 4E

AktivWissenschaftSSO
NORAD 65227·PAYLOAD·🇦🇺 Australia

Gestartet Jul 23, 2025 von Vandenberg Space Force Base

Loading…

Nächste Überflüge (nächste 24 Stunden)

TLE

AktuellSource: Space-Track

Epoche: Sep 14, 2026, 14:30 UTC

1 65227U 25154L   26257.60436157  .00005087  00000-0  42584-3 0  9999
2 65227  97.6620 320.8441 0003903 350.6441   9.4708 14.98880487 60724

Verfolge SKYCRAFT 4E in Echtzeit mit AllMySat

Download on the App Store